Weather History for Redmond, OR

Change the Weather History Date:

Tuesday, May 14, 2013

  Actual Average Record
Temperature  
Mean Temperature 50 °F 51 °F  
Max Temperature 69 °F 67 °F 90 °F (1973)
Min Temperature 31 °F 35 °F 22 °F (1964)
Degree Days  
Heating Degree Days 15 14  
Month to date heating degree days 109 222  
Since 1 July heating degree days 5955 6293  
Cooling Degree Days 0 0  
Month to date cooling degree days 9 0  
Year to date cooling degree days 9 0  
Moisture  
Dew Point 32 °F    
Average Humidity 56    
Maximum Humidity 89    
Minimum Humidity 23    
Precipitation  
Precipitation 0.00 in 0.03 in 0.30 in (1959)
Month to date precipitation T 0.41  
Year to date precipitation 0.85 3.42  
Sea Level Pressure  
Sea Level Pressure 30.10 in    
Wind  
Wind Speed 6 mph (NNW)    
Max Wind Speed 16 mph    
Max Gust Speed 22 mph    
Visibility 10 miles    
Events      
T = Trace of Precipitation, MM = Missing Value Source: NWS Daily Summary

Daily Weather History Graph

Daily Weather History Graph

Search for Another Location

Airport:

Trip Planner

Search our weather history database for the weather conditions in past years. The results will help you decide how hot, cold, wet, or windy it might be!

Date:

Astronomy

May. 14, 2013 Rise Set
Actual Time 5:38 AM PDT 8:24 PM PDT
Civil Twilight 5:05 AM PDT 8:57 PM PDT
Nautical Twilight 4:22 AM PDT 9:40 PM PDT
Astronomical Twilight 3:33 AM PDT 10:29 PM PDT
Moon 9:23 AM PDT (5/14) No Moon Set
Length of Visible Light 15h 52m
Length of Day
14h 45m
Waxing Crescent, 19% of the Moon is Illuminated
May 14
Waxing Crescent
May 17
First Quarter
May 24
Full
May 31
Last Quarter
Jun 8
New

Hourly Weather History & Observations

Time (PDT) Temp. Windchill Dew Point Humidity Pressure Visibility Wind Dir Wind Speed Gust Speed Precip Events Conditions
12:56 AM 36.0 °F - 32.0 °F 86% 30.17 in 10.0 mi Calm Calm - N/A   Clear
1:56 AM 34.0 °F 29.8 °F 30.9 °F 89% 30.16 in 10.0 mi SSE 4.6 mph - N/A   Clear
2:56 AM 33.1 °F - 28.9 °F 85% 30.15 in 10.0 mi Calm Calm - N/A   Clear
3:56 AM 32.0 °F 27.5 °F 28.9 °F 88% 30.16 in 10.0 mi NE 4.6 mph - N/A   Clear
4:56 AM 32.0 °F 28.7 °F 28.9 °F 88% 30.14 in 10.0 mi South 3.5 mph - N/A   Clear
5:56 AM 33.1 °F - 28.9 °F 85% 30.16 in 10.0 mi Calm Calm - N/A   Clear
6:56 AM 36.0 °F 33.3 °F 30.9 °F 82% 30.17 in 10.0 mi SE 3.5 mph - N/A   Scattered Clouds
7:56 AM 45.0 °F - 34.0 °F 65% 30.16 in 10.0 mi Calm Calm - N/A   Clear
8:56 AM 51.1 °F - 35.1 °F 54% 30.15 in 10.0 mi North 4.6 mph - N/A   Clear
9:56 AM 53.1 °F - 34.0 °F 48% 30.13 in 10.0 mi ESE 4.6 mph - N/A   Partly Cloudy
10:56 AM 55.0 °F - 33.1 °F 43% 30.12 in 10.0 mi Calm Calm - N/A   Clear
11:56 AM 59.0 °F - 33.1 °F 38% 30.12 in 10.0 mi Variable 5.8 mph - N/A   Clear
12:56 PM 62.1 °F - 28.0 °F 28% 30.10 in 10.0 mi NW 5.8 mph - N/A   Clear
1:56 PM 64.9 °F - 30.9 °F 28% 30.07 in 10.0 mi Variable 5.8 mph - N/A   Clear
2:56 PM 66.0 °F - 32.0 °F 28% 30.06 in 10.0 mi North 6.9 mph - N/A   Clear
3:56 PM 68.0 °F - 30.9 °F 25% 30.03 in 10.0 mi NNW 10.4 mph 18.4 mph N/A   Clear
4:56 PM 69.1 °F - 30.9 °F 24% 30.03 in 10.0 mi NNW 13.8 mph 20.7 mph N/A   Clear
5:56 PM 66.0 °F - 33.1 °F 29% 30.04 in 10.0 mi North 12.7 mph 17.3 mph N/A   Clear
6:56 PM 64.0 °F - 32.0 °F 30% 30.04 in 10.0 mi NNW 10.4 mph - N/A   Clear
7:56 PM 62.1 °F - 30.9 °F 31% 30.03 in 10.0 mi NNW 10.4 mph - N/A   Clear
8:56 PM 57.0 °F - 30.9 °F 37% 30.05 in 10.0 mi NNW 9.2 mph - N/A   Clear
9:56 PM 55.0 °F - 34.0 °F 45% 30.07 in 10.0 mi NW 10.4 mph - N/A   Clear
10:56 PM 52.0 °F - 34.0 °F 50% 30.07 in 10.0 mi NNW 4.6 mph - N/A   Clear
11:56 PM 50.0 °F - 30.9 °F 48% 30.06 in 10.0 mi WNW 5.8 mph - N/A   Clear